Weather History for KEUG - May, 2014

Change the Weather History Date:

Wednesday, May 14, 2014

  Actual Average Record
Temperature  
Mean Temperature 65 °F 55 °F  
Max Temperature 85 °F 67 °F 92 °F (1939)
Min Temperature 44 °F 43 °F 31 °F (1913)
Degree Days  
Heating Degree Days 0 10  
Month to date heating degree days 121 157  
Since 1 July heating degree days 4549 4499  
Cooling Degree Days 0 0  
Month to date cooling degree days 2 0  
Year to date cooling degree days 2 0  
Growing Degree Days 14 (Base 50)    
Moisture  
Dew Point 54 °F    
Average Humidity 68    
Maximum Humidity 93    
Minimum Humidity 42    
Precipitation  
Precipitation 0.00 in 0.09 in 0.96 in (1936)
Month to date precipitation 1.23 1.26  
Year to date precipitation 20.74 21.88  
Sea Level Pressure  
Sea Level Pressure 30.14 in    
Wind  
Wind Speed 5 mph (North)    
Max Wind Speed 13 mph    
Max Gust Speed 15 mph    
Visibility 10 miles    
Events Fog    
T = Trace of Precipitation, MM = Missing Value Source: NWS Daily Summary

Daily Weather History Graph

Daily Weather History Graph

Search for Another Location

Airport or City:

Trip Planner

Search our weather history database for the weather conditions in past years. The results will help you decide how hot, cold, wet, or windy it might be!

Date:

Astronomy

May. 14, 2014 Rise Set
Actual Time 5:47 AM PDT 8:31 PM PDT
Civil Twilight 5:14 AM PDT 9:05 PM PDT
Nautical Twilight 4:31 AM PDT 9:47 PM PDT
Astronomical Twilight 3:43 AM PDT 10:36 PM PDT
Moon 8:42 PM PDT (5/14) 5:52 AM PDT (5/14)
Length of Visible Light 15h 51m
Length of Day
14h 44m
Full, 100% of the Moon is Illuminated
May 14
Full
May 14
Full
May 21
Last Quarter
May 28
New
Jun 5
First Quarter

Hourly Weather History & Observations

Time (PDT) Temp. Windchill Dew Point Humidity Pressure Visibility Wind Dir Wind Speed Gust Speed Precip Events Conditions
12:54 AM 55.0 °F - 48.9 °F 80% 30.22 in 10.0 mi Calm Calm - N/A   Clear
1:54 AM 52.0 °F - 46.9 °F 83% 30.22 in 10.0 mi ENE 3.5 mph - N/A   Clear
2:54 AM 48.0 °F - 45.0 °F 89% 30.22 in 10.0 mi Calm Calm - N/A   Clear
3:54 AM 50.0 °F - 46.9 °F 89% 30.22 in 10.0 mi South 3.5 mph - N/A   Clear
4:54 AM 48.9 °F - 46.0 °F 90% 30.21 in 9.0 mi Calm Calm - N/A   Clear
5:54 AM 45.0 °F 43.5 °F 43.0 °F 93% 30.21 in 10.0 mi South 3.5 mph - N/A Fog Shallow Fog
6:54 AM 50.0 °F - 46.9 °F 89% 30.22 in 10.0 mi South 3.5 mph - N/A   Scattered Clouds
7:54 AM 60.8 °F - 51.8 °F 72% 30.22 in 10.0 mi Calm Calm - N/A   Partly Cloudy
8:54 AM 64.0 °F - 51.1 °F 63% 30.22 in 10.0 mi North 4.6 mph - N/A   Partly Cloudy
9:54 AM 68.0 °F - 48.9 °F 50% 30.21 in 10.0 mi North 6.9 mph - N/A   Partly Cloudy
10:54 AM 70.0 °F - 51.1 °F 51% 30.19 in 10.0 mi Variable 4.6 mph - N/A   Partly Cloudy
11:54 AM 73.4 °F - 55.4 °F 53% 30.17 in 10.0 mi NNE 5.8 mph - N/A   Partly Cloudy
12:54 PM 78.1 °F - 55.0 °F 45% 30.16 in 10.0 mi North 9.2 mph - N/A   Partly Cloudy
1:54 PM 80.1 °F - 55.9 °F 43% 30.14 in 10.0 mi North 10.4 mph - N/A   Partly Cloudy
2:54 PM 82.0 °F - 57.9 °F 44% 30.12 in 10.0 mi North 9.2 mph - N/A   Partly Cloudy
3:54 PM 84.0 °F - 61.0 °F 46% 30.09 in 10.0 mi North 10.4 mph - N/A   Scattered Clouds
4:54 PM 84.9 °F - 63.0 °F 48% 30.07 in 10.0 mi North 8.1 mph - N/A   Mostly Cloudy
5:54 PM 84.0 °F - 64.9 °F 53% 30.05 in 10.0 mi North 9.2 mph - N/A   Mostly Cloudy
6:54 PM 81.0 °F - 66.0 °F 60% 30.04 in 10.0 mi NNW 6.9 mph - N/A   Mostly Cloudy
7:54 PM 75.0 °F - 64.0 °F 69% 30.04 in 10.0 mi WNW 6.9 mph - N/A   Mostly Cloudy
8:54 PM 72.0 °F - 59.0 °F 64% 30.05 in 10.0 mi West 5.8 mph - N/A   Mostly Cloudy
9:54 PM 64.0 °F - 55.0 °F 73% 30.06 in 10.0 mi SSW 3.5 mph - N/A   Partly Cloudy
10:54 PM 64.0 °F - 57.9 °F 80% 30.07 in 10.0 mi South 3.5 mph - N/A   Partly Cloudy
11:54 PM 61.0 °F - 55.0 °F 81% 30.07 in 10.0 mi SSE 9.2 mph - N/A   Clear